Location: S�tio Afonso Gruber
(26.1760°S, 49.5250°W)
Time: 23:32:37
(UTC+00:00)

Intelsat 5-3 Rocket - Pass Details

Date: 10 October 2020
Orbit: 281 x 6111 km, 23.6° (Epoch: 22 October)

Event Time Altitude Azimuth Distance (km) Brightness Sun altitude
Rises 23:25:01 0° 297° (WNW) 2,595 6.3 -27.2°
Reaches altitude 10° 23:26:37 10° 303° (WNW) 1,971 5.5 -27.5°
Enters shadow 23:29:40 45° 340° (NNW) 1,181 3.8 -28.1°
